Year,Month,Day,Hour,Minute,Value (Times are PST for temperature in C)
2015,06,27,00,00,17.90
2015,06,27,00,01,17.90
2015,06,27,00,02,17.80
2015,06,27,00,03,17.80
2015,06,27,00,04,17.80
2015,06,27,00,05,17.80
2015,06,27,00,06,17.80
2015,06,27,00,07,17.80
2015,06,27,00,08,17.80
2015,06,27,00,09,17.80
2015,06,27,00,10,17.70
2015,06,27,00,11,17.70
2015,06,27,00,12,17.70
2015,06,27,00,13,17.70
2015,06,27,00,14,17.70
2015,06,27,00,15,17.70
2015,06,27,00,16,17.60
2015,06,27,00,17,17.60
2015,06,27,00,18,17.60
2015,06,27,00,19,17.60
2015,06,27,00,20,17.50
2015,06,27,00,21,17.50
2015,06,27,00,22,17.50
2015,06,27,00,23,17.40
2015,06,27,00,24,17.40
2015,06,27,00,25,17.40
2015,06,27,00,26,17.40
2015,06,27,00,27,17.30
2015,06,27,00,28,17.40
2015,06,27,00,29,17.40
2015,06,27,00,30,17.40
2015,06,27,00,31,17.40
2015,06,27,00,32,17.40
2015,06,27,00,33,17.40
2015,06,27,00,34,17.40
2015,06,27,00,35,17.40
2015,06,27,00,36,17.40
2015,06,27,00,37,17.40
2015,06,27,00,38,17.40
2015,06,27,00,39,17.40
2015,06,27,00,40,17.40
2015,06,27,00,41,17.40
2015,06,27,00,42,17.40
2015,06,27,00,43,17.40
2015,06,27,00,44,17.40
2015,06,27,00,45,17.40
2015,06,27,00,46,17.40
2015,06,27,00,47,17.30
2015,06,27,00,48,17.30
2015,06,27,00,49,17.30
2015,06,27,00,50,17.30
2015,06,27,00,51,17.30
2015,06,27,00,52,17.20
2015,06,27,00,53,17.20
2015,06,27,00,54,17.20
2015,06,27,00,55,17.20
2015,06,27,00,56,17.20
2015,06,27,00,57,17.10
2015,06,27,00,58,17.10
2015,06,27,00,59,17.10
2015,06,27,01,00,17.10
2015,06,27,01,01,17.20
2015,06,27,01,02,17.20
2015,06,27,01,03,17.20
2015,06,27,01,04,17.20
2015,06,27,01,05,17.20
2015,06,27,01,06,17.20
2015,06,27,01,07,17.20
2015,06,27,01,08,17.20
2015,06,27,01,09,17.20
2015,06,27,01,10,17.20
2015,06,27,01,11,17.10
2015,06,27,01,12,17.10
2015,06,27,01,13,17.10
2015,06,27,01,14,17.10
2015,06,27,01,15,17.10
2015,06,27,01,16,17.10
2015,06,27,01,17,17.10
2015,06,27,01,18,17.10
2015,06,27,01,19,17.10
2015,06,27,01,20,17.10
2015,06,27,01,21,17.00
2015,06,27,01,22,17.00
2015,06,27,01,23,17.00
2015,06,27,01,24,16.90
2015,06,27,01,25,16.90
2015,06,27,01,26,16.90
2015,06,27,01,27,16.90
2015,06,27,01,28,16.90
2015,06,27,01,29,16.80
2015,06,27,01,30,16.80
2015,06,27,01,31,16.80
2015,06,27,01,32,16.80
2015,06,27,01,33,16.80
2015,06,27,01,34,16.80
2015,06,27,01,35,16.80
2015,06,27,01,36,16.70
2015,06,27,01,37,16.70
2015,06,27,01,38,16.70
2015,06,27,01,39,16.70
2015,06,27,01,40,16.70
2015,06,27,01,41,16.70
2015,06,27,01,42,16.70
2015,06,27,01,43,16.70
2015,06,27,01,44,16.70
2015,06,27,01,45,16.70
2015,06,27,01,46,16.60
2015,06,27,01,47,16.60
2015,06,27,01,48,16.60
2015,06,27,01,49,16.60
2015,06,27,01,50,16.60
2015,06,27,01,51,16.60
2015,06,27,01,52,16.50
2015,06,27,01,53,16.50
2015,06,27,01,54,16.50
2015,06,27,01,55,16.50
2015,06,27,01,56,16.50
2015,06,27,01,57,16.50
2015,06,27,01,58,16.40
2015,06,27,01,59,16.40
2015,06,27,02,00,16.40
2015,06,27,02,01,16.40
2015,06,27,02,02,16.30
2015,06,27,02,03,16.30
2015,06,27,02,04,16.30
2015,06,27,02,05,16.30
2015,06,27,02,06,16.30
2015,06,27,02,07,16.30
2015,06,27,02,08,16.30
2015,06,27,02,09,16.30
2015,06,27,02,10,16.30
2015,06,27,02,11,16.30
2015,06,27,02,12,16.30
2015,06,27,02,13,16.30
2015,06,27,02,14,16.20
2015,06,27,02,15,16.20
2015,06,27,02,16,16.20
2015,06,27,02,17,16.20
2015,06,27,02,18,16.20
2015,06,27,02,19,16.20
2015,06,27,02,20,16.20
2015,06,27,02,21,16.10
2015,06,27,02,22,16.10
2015,06,27,02,23,16.10
2015,06,27,02,24,16.10
2015,06,27,02,25,16.10
2015,06,27,02,26,16.00
2015,06,27,02,27,16.00
2015,06,27,02,28,15.90
2015,06,27,02,29,15.90
2015,06,27,02,30,15.90
2015,06,27,02,31,15.90
2015,06,27,02,32,15.80
2015,06,27,02,33,15.80
2015,06,27,02,34,15.80
2015,06,27,02,35,15.80
2015,06,27,02,36,15.80
2015,06,27,02,37,15.80
2015,06,27,02,38,15.70
2015,06,27,02,39,15.70
2015,06,27,02,40,15.70
2015,06,27,02,41,15.70
2015,06,27,02,42,15.70
2015,06,27,02,43,15.70
2015,06,27,02,44,15.70
2015,06,27,02,45,15.70
2015,06,27,02,46,15.70
2015,06,27,02,47,15.70
2015,06,27,02,48,15.70
2015,06,27,02,49,15.80
2015,06,27,02,50,15.80
2015,06,27,02,51,15.80
2015,06,27,02,52,15.80
2015,06,27,02,53,15.80
2015,06,27,02,54,15.90
2015,06,27,02,55,15.90
2015,06,27,02,56,15.90
2015,06,27,02,57,15.90
2015,06,27,02,58,15.90
2015,06,27,02,59,15.90
2015,06,27,03,00,15.90
2015,06,27,03,01,15.90
2015,06,27,03,02,15.90
2015,06,27,03,03,15.90
2015,06,27,03,04,15.80
2015,06,27,03,05,15.80
2015,06,27,03,06,15.80
2015,06,27,03,07,15.80
2015,06,27,03,08,15.80
2015,06,27,03,09,15.70
2015,06,27,03,10,15.70
2015,06,27,03,11,15.70
2015,06,27,03,12,15.70
2015,06,27,03,13,15.60
2015,06,27,03,14,15.60
2015,06,27,03,15,15.60
2015,06,27,03,16,15.60
2015,06,27,03,17,15.50
2015,06,27,03,18,15.50
2015,06,27,03,19,15.50
2015,06,27,03,20,15.50
2015,06,27,03,21,15.50
2015,06,27,03,22,15.50
2015,06,27,03,23,15.60
2015,06,27,03,24,15.60
2015,06,27,03,25,15.60
2015,06,27,03,26,15.60
2015,06,27,03,27,15.70
2015,06,27,03,28,15.70
2015,06,27,03,29,15.70
2015,06,27,03,30,15.70
2015,06,27,03,31,15.70
2015,06,27,03,32,15.70
2015,06,27,03,33,15.70
2015,06,27,03,34,15.70
2015,06,27,03,35,15.70
2015,06,27,03,36,15.70
2015,06,27,03,37,15.70
2015,06,27,03,38,15.70
2015,06,27,03,39,15.70
2015,06,27,03,40,15.70
2015,06,27,03,41,15.70
2015,06,27,03,42,15.70
2015,06,27,03,43,15.70
2015,06,27,03,44,15.70
2015,06,27,03,45,15.70
2015,06,27,03,46,15.70
2015,06,27,03,47,15.70
2015,06,27,03,48,15.70
2015,06,27,03,49,15.70
2015,06,27,03,50,15.70
2015,06,27,03,51,15.80
2015,06,27,03,52,15.80
2015,06,27,03,53,15.80
2015,06,27,03,54,15.80
2015,06,27,03,55,15.80
2015,06,27,03,56,15.80
2015,06,27,03,57,15.80
2015,06,27,03,58,15.70
2015,06,27,03,59,15.70
2015,06,27,04,00,15.70
2015,06,27,04,01,15.60
2015,06,27,04,02,15.60
2015,06,27,04,03,15.60
2015,06,27,04,04,15.60
2015,06,27,04,05,15.50
2015,06,27,04,06,15.50
2015,06,27,04,07,15.50
2015,06,27,04,08,15.50
2015,06,27,04,09,15.50
2015,06,27,04,10,15.50
2015,06,27,04,11,15.50
2015,06,27,04,12,15.50
2015,06,27,04,13,15.50
2015,06,27,04,14,15.50
2015,06,27,04,15,15.50
2015,06,27,04,16,15.50
2015,06,27,04,17,15.50
2015,06,27,04,18,15.50
2015,06,27,04,19,15.50
2015,06,27,04,20,15.50
2015,06,27,04,21,15.50
2015,06,27,04,22,15.50
2015,06,27,04,23,15.50
2015,06,27,04,24,15.40
2015,06,27,04,25,15.40
2015,06,27,04,26,15.30
2015,06,27,04,27,15.30
2015,06,27,04,28,15.30
2015,06,27,04,29,15.30
2015,06,27,04,30,15.30
2015,06,27,04,31,15.30
2015,06,27,04,32,15.30
2015,06,27,04,33,15.30
2015,06,27,04,34,15.30
2015,06,27,04,35,15.30
2015,06,27,04,36,15.30
2015,06,27,04,37,15.30
2015,06,27,04,38,15.30
2015,06,27,04,39,15.40
2015,06,27,04,40,15.40
2015,06,27,04,41,15.50
2015,06,27,04,42,15.60
2015,06,27,04,43,15.60
2015,06,27,04,44,15.70
2015,06,27,04,45,15.70
2015,06,27,04,46,15.60
2015,06,27,04,47,15.60
2015,06,27,04,48,15.50
2015,06,27,04,49,15.50
2015,06,27,04,50,15.40
2015,06,27,04,51,15.40
2015,06,27,04,52,15.40
2015,06,27,04,53,15.40
2015,06,27,04,54,15.40
2015,06,27,04,55,15.40
2015,06,27,04,56,15.40
2015,06,27,04,57,15.40
2015,06,27,04,58,15.40
2015,06,27,04,59,15.30
2015,06,27,05,00,15.30
2015,06,27,05,01,15.30
2015,06,27,05,02,15.20
2015,06,27,05,03,15.20
2015,06,27,05,04,15.20
2015,06,27,05,05,15.10
2015,06,27,05,06,15.10
2015,06,27,05,07,15.00
2015,06,27,05,08,15.00
2015,06,27,05,09,15.00
2015,06,27,05,10,15.00
2015,06,27,05,11,15.00
2015,06,27,05,12,15.00
2015,06,27,05,13,15.00
2015,06,27,05,14,15.00
2015,06,27,05,15,15.00
2015,06,27,05,16,15.00
2015,06,27,05,17,15.00
2015,06,27,05,18,15.00
2015,06,27,05,19,15.00
2015,06,27,05,20,15.00
2015,06,27,05,21,15.00
2015,06,27,05,22,15.00
2015,06,27,05,23,15.00
2015,06,27,05,24,15.00
2015,06,27,05,25,15.00
2015,06,27,05,26,15.00
2015,06,27,05,27,15.00
2015,06,27,05,28,15.00
2015,06,27,05,29,15.00
2015,06,27,05,30,15.00
2015,06,27,05,31,15.00
2015,06,27,05,32,15.00
2015,06,27,05,33,15.00
2015,06,27,05,34,15.00
2015,06,27,05,35,15.00
2015,06,27,05,36,15.00
2015,06,27,05,37,15.00
2015,06,27,05,38,15.00
2015,06,27,05,39,15.00
2015,06,27,05,40,15.00
2015,06,27,05,41,15.00
2015,06,27,05,42,15.00
2015,06,27,05,43,14.90
2015,06,27,05,44,14.90
2015,06,27,05,45,14.90
2015,06,27,05,46,14.90
2015,06,27,05,47,14.90
2015,06,27,05,48,14.90
2015,06,27,05,49,14.90
2015,06,27,05,50,14.90
2015,06,27,05,51,14.90
2015,06,27,05,52,14.90
2015,06,27,05,53,14.90
2015,06,27,05,54,14.90
2015,06,27,05,55,14.90
2015,06,27,05,56,14.80
2015,06,27,05,57,14.80
2015,06,27,05,58,14.90
2015,06,27,05,59,14.90
2015,06,27,06,00,14.90
2015,06,27,06,01,14.90
2015,06,27,06,02,15.00
2015,06,27,06,03,15.00
2015,06,27,06,04,15.00
2015,06,27,06,05,15.00
2015,06,27,06,06,15.00
2015,06,27,06,07,15.00
2015,06,27,06,08,15.00
2015,06,27,06,09,15.00
2015,06,27,06,10,15.00
2015,06,27,06,11,15.00
2015,06,27,06,12,15.00
2015,06,27,06,13,15.00
2015,06,27,06,14,15.00
2015,06,27,06,15,15.00
2015,06,27,06,16,15.00
2015,06,27,06,17,15.00
2015,06,27,06,18,15.00
2015,06,27,06,19,15.10
2015,06,27,06,20,15.10
2015,06,27,06,21,15.10
2015,06,27,06,22,15.20
2015,06,27,06,23,15.20
2015,06,27,06,24,15.20
2015,06,27,06,25,15.30
2015,06,27,06,26,15.30
2015,06,27,06,27,15.30
2015,06,27,06,28,15.40
2015,06,27,06,29,15.40
2015,06,27,06,30,15.40
2015,06,27,06,31,15.50
2015,06,27,06,32,15.50
2015,06,27,06,33,15.60
2015,06,27,06,34,15.60
2015,06,27,06,35,15.70
2015,06,27,06,36,15.70
2015,06,27,06,37,15.80
2015,06,27,06,38,15.90
2015,06,27,06,39,15.90
2015,06,27,06,40,16.00
2015,06,27,06,41,16.10
2015,06,27,06,42,16.10
2015,06,27,06,43,16.20
2015,06,27,06,44,16.20
2015,06,27,06,45,16.30
2015,06,27,06,46,16.30
2015,06,27,06,47,16.40
2015,06,27,06,48,16.40
2015,06,27,06,49,16.40
2015,06,27,06,50,16.50
2015,06,27,06,51,16.50
2015,06,27,06,52,16.60
2015,06,27,06,53,16.60
2015,06,27,06,54,16.60
2015,06,27,06,55,16.70
2015,06,27,06,56,16.70
2015,06,27,06,57,16.80
2015,06,27,06,58,16.90
2015,06,27,06,59,16.90
2015,06,27,07,00,17.00
2015,06,27,07,01,17.10
2015,06,27,07,02,17.20
2015,06,27,07,03,17.40
2015,06,27,07,04,17.50
2015,06,27,07,05,17.70
2015,06,27,07,06,17.80
2015,06,27,07,07,18.10
2015,06,27,07,08,18.40
2015,06,27,07,09,18.70
2015,06,27,07,10,18.80
2015,06,27,07,11,19.00
2015,06,27,07,12,19.20
2015,06,27,07,13,19.30
2015,06,27,07,14,19.50
2015,06,27,07,15,19.70
2015,06,27,07,16,19.80
2015,06,27,07,17,19.90
2015,06,27,07,18,20.00
2015,06,27,07,19,20.10
2015,06,27,07,20,20.20
2015,06,27,07,21,20.30
2015,06,27,07,22,20.30
2015,06,27,07,23,20.40
2015,06,27,07,24,20.40
2015,06,27,07,25,20.40
2015,06,27,07,26,20.50
2015,06,27,07,27,20.50
2015,06,27,07,28,20.60
2015,06,27,07,29,20.60
2015,06,27,07,30,20.60
2015,06,27,07,31,20.60
2015,06,27,07,32,20.60
2015,06,27,07,33,20.70
2015,06,27,07,34,20.70
2015,06,27,07,35,20.70
2015,06,27,07,36,20.80
2015,06,27,07,37,20.80
2015,06,27,07,38,20.90
2015,06,27,07,39,20.90
2015,06,27,07,40,20.90
2015,06,27,07,41,21.00
2015,06,27,07,42,21.00
2015,06,27,07,43,21.10
2015,06,27,07,44,21.10
2015,06,27,07,45,21.20
2015,06,27,07,46,21.20
2015,06,27,07,47,21.20
2015,06,27,07,48,21.30
2015,06,27,07,49,21.30
2015,06,27,07,50,21.30
2015,06,27,07,51,21.30
2015,06,27,07,52,21.40
2015,06,27,07,53,21.40
2015,06,27,07,54,21.40
2015,06,27,07,55,21.50
2015,06,27,07,56,21.50
2015,06,27,07,57,21.60
2015,06,27,07,58,21.60
2015,06,27,07,59,21.70
2015,06,27,08,00,21.70
2015,06,27,08,01,21.70
2015,06,27,08,02,21.80
2015,06,27,08,03,21.80
2015,06,27,08,04,21.80
2015,06,27,08,05,21.90
2015,06,27,08,06,21.90
2015,06,27,08,07,21.90
2015,06,27,08,08,22.00
2015,06,27,08,09,22.00
2015,06,27,08,10,22.00
2015,06,27,08,11,22.10
2015,06,27,08,12,22.10
2015,06,27,08,13,22.10
2015,06,27,08,14,22.10
2015,06,27,08,15,22.20
2015,06,27,08,16,22.20
2015,06,27,08,17,22.20
2015,06,27,08,18,22.20
2015,06,27,08,19,22.20
2015,06,27,08,20,22.20
2015,06,27,08,21,22.30
2015,06,27,08,22,22.30
2015,06,27,08,23,22.30
2015,06,27,08,24,22.30
2015,06,27,08,25,22.40
2015,06,27,08,26,22.40
2015,06,27,08,27,22.40
2015,06,27,08,28,22.40
2015,06,27,08,29,22.40
2015,06,27,08,30,22.50
2015,06,27,08,31,22.50
2015,06,27,08,32,22.50
2015,06,27,08,33,22.60
2015,06,27,08,34,22.60
2015,06,27,08,35,22.70
2015,06,27,08,36,22.70
2015,06,27,08,37,22.80
2015,06,27,08,38,22.80
2015,06,27,08,39,22.90
2015,06,27,08,40,22.90
2015,06,27,08,41,22.90
2015,06,27,08,42,23.00
2015,06,27,08,43,23.10
2015,06,27,08,44,23.10
2015,06,27,08,45,23.10
2015,06,27,08,46,23.10
2015,06,27,08,47,23.10
2015,06,27,08,48,23.10
2015,06,27,08,49,23.10
2015,06,27,08,50,23.10
2015,06,27,08,51,23.20
2015,06,27,08,52,23.20
2015,06,27,08,53,23.30
2015,06,27,08,54,23.40
2015,06,27,08,55,23.40
2015,06,27,08,56,23.50
2015,06,27,08,57,23.50
2015,06,27,08,58,23.60
2015,06,27,08,59,23.60
2015,06,27,09,00,23.70
2015,06,27,09,01,23.70
2015,06,27,09,02,23.70
2015,06,27,09,03,23.70
2015,06,27,09,04,23.70
2015,06,27,09,05,23.70
2015,06,27,09,06,23.70
2015,06,27,09,07,23.80
2015,06,27,09,08,23.80
2015,06,27,09,09,23.80
2015,06,27,09,10,23.80
2015,06,27,09,11,23.90
2015,06,27,09,12,23.90
2015,06,27,09,13,23.90
2015,06,27,09,14,23.90
2015,06,27,09,15,23.90
2015,06,27,09,16,24.00
2015,06,27,09,17,24.00
2015,06,27,09,18,24.00
2015,06,27,09,19,24.00
2015,06,27,09,20,24.00
2015,06,27,09,21,24.00
2015,06,27,09,22,24.00
2015,06,27,09,23,24.00
2015,06,27,09,24,24.00
2015,06,27,09,25,24.10
2015,06,27,09,26,24.10
2015,06,27,09,27,24.20
2015,06,27,09,28,24.20
2015,06,27,09,29,24.20
2015,06,27,09,30,24.30
2015,06,27,09,31,24.30
2015,06,27,09,32,24.40
2015,06,27,09,33,24.50
2015,06,27,09,34,24.50
2015,06,27,09,35,24.60
2015,06,27,09,36,24.60
2015,06,27,09,37,24.70
2015,06,27,09,38,24.70
2015,06,27,09,39,24.80
2015,06,27,09,40,24.80
2015,06,27,09,41,24.80
2015,06,27,09,42,24.90
2015,06,27,09,43,25.00
2015,06,27,09,44,25.00
2015,06,27,09,45,25.10
2015,06,27,09,46,25.20
2015,06,27,09,47,25.30
2015,06,27,09,48,25.40
2015,06,27,09,49,25.40
2015,06,27,09,50,25.50
2015,06,27,09,51,25.50
2015,06,27,09,52,25.60
2015,06,27,09,53,25.70
2015,06,27,09,54,25.80
2015,06,27,09,55,25.90
2015,06,27,09,56,25.90
2015,06,27,09,57,25.90
2015,06,27,09,58,25.90
2015,06,27,09,59,25.90
2015,06,27,10,00,25.90
2015,06,27,10,01,25.80
2015,06,27,10,02,25.80
2015,06,27,10,03,25.70
2015,06,27,10,04,25.60
2015,06,27,10,05,25.60
2015,06,27,10,06,25.60
2015,06,27,10,07,25.50
2015,06,27,10,08,25.50
2015,06,27,10,09,25.40
2015,06,27,10,10,25.40
2015,06,27,10,11,25.40
2015,06,27,10,12,25.40
2015,06,27,10,13,25.30
2015,06,27,10,14,25.20
2015,06,27,10,15,25.20
2015,06,27,10,16,25.10
2015,06,27,10,17,25.10
2015,06,27,10,18,25.10
2015,06,27,10,19,25.10
2015,06,27,10,20,25.00
2015,06,27,10,21,25.00
2015,06,27,10,22,25.10
2015,06,27,10,23,25.20
2015,06,27,10,24,25.20
2015,06,27,10,25,25.30
2015,06,27,10,26,25.30
2015,06,27,10,27,25.20
2015,06,27,10,28,25.10
2015,06,27,10,29,25.10
2015,06,27,10,30,25.10
2015,06,27,10,31,25.10
2015,06,27,10,32,25.10
2015,06,27,10,33,25.10
2015,06,27,10,34,25.10
2015,06,27,10,35,25.10
2015,06,27,10,36,25.20
2015,06,27,10,37,25.30
2015,06,27,10,38,25.30
2015,06,27,10,39,25.20
2015,06,27,10,40,25.30
2015,06,27,10,41,25.30
2015,06,27,10,42,25.50
2015,06,27,10,43,25.60
2015,06,27,10,44,25.80
2015,06,27,10,45,25.80
2015,06,27,10,46,25.90
2015,06,27,10,47,25.90
2015,06,27,10,48,25.90
2015,06,27,10,49,26.00
2015,06,27,10,50,26.00
2015,06,27,10,51,26.10
2015,06,27,10,52,26.10
2015,06,27,10,53,26.20
2015,06,27,10,54,26.20
2015,06,27,10,55,26.20
2015,06,27,10,56,26.30
2015,06,27,10,57,26.40
2015,06,27,10,58,26.40
2015,06,27,10,59,26.50
2015,06,27,11,00,26.60
2015,06,27,11,01,26.70
2015,06,27,11,02,26.80
2015,06,27,11,03,26.80
2015,06,27,11,04,26.90
2015,06,27,11,05,26.90
2015,06,27,11,06,27.00
2015,06,27,11,07,27.00
2015,06,27,11,08,27.10
2015,06,27,11,09,27.10
2015,06,27,11,10,27.10
2015,06,27,11,11,27.20
2015,06,27,11,12,27.20
2015,06,27,11,13,27.20
2015,06,27,11,14,27.30
2015,06,27,11,15,27.40
2015,06,27,11,16,27.50
2015,06,27,11,17,27.50
2015,06,27,11,18,27.50
2015,06,27,11,19,27.40
2015,06,27,11,20,27.40
2015,06,27,11,21,27.40
2015,06,27,11,22,27.40
2015,06,27,11,23,27.40
2015,06,27,11,24,27.40
2015,06,27,11,25,27.40
2015,06,27,11,26,27.40
2015,06,27,11,27,27.40
2015,06,27,11,28,27.30
2015,06,27,11,29,27.40
2015,06,27,11,30,27.40
2015,06,27,11,31,27.40
2015,06,27,11,32,27.40
2015,06,27,11,33,27.40
2015,06,27,11,34,27.50
2015,06,27,11,35,27.60
2015,06,27,11,36,27.60
2015,06,27,11,37,27.70
2015,06,27,11,38,27.70
2015,06,27,11,39,27.80
2015,06,27,11,40,27.90
2015,06,27,11,41,28.00
2015,06,27,11,42,28.10
2015,06,27,11,43,28.20
2015,06,27,11,44,28.20
2015,06,27,11,45,28.10
2015,06,27,11,46,28.10
2015,06,27,11,47,28.10
2015,06,27,11,48,28.20
2015,06,27,11,49,28.30
2015,06,27,11,50,28.40
2015,06,27,11,51,28.40
2015,06,27,11,52,28.30
2015,06,27,11,53,28.30
2015,06,27,11,54,28.30
2015,06,27,11,55,28.40
2015,06,27,11,56,28.40
2015,06,27,11,57,28.40
2015,06,27,11,58,28.40
2015,06,27,11,59,28.40
2015,06,27,12,00,28.30
2015,06,27,12,01,28.40
2015,06,27,12,02,28.50
2015,06,27,12,03,28.60
2015,06,27,12,04,28.80
2015,06,27,12,05,28.90
2015,06,27,12,06,29.00
2015,06,27,12,07,29.10
2015,06,27,12,08,29.20
2015,06,27,12,09,29.30
2015,06,27,12,10,29.30
2015,06,27,12,11,29.30
2015,06,27,12,12,29.20
2015,06,27,12,13,29.10
2015,06,27,12,14,29.20
2015,06,27,12,15,29.30
2015,06,27,12,16,29.30
2015,06,27,12,17,29.40
2015,06,27,12,18,29.60
2015,06,27,12,19,29.60
2015,06,27,12,20,29.50
2015,06,27,12,21,29.40
2015,06,27,12,22,29.40
2015,06,27,12,23,29.50
2015,06,27,12,24,29.50
2015,06,27,12,25,29.70
2015,06,27,12,26,29.80
2015,06,27,12,27,29.80
2015,06,27,12,28,29.90
2015,06,27,12,29,30.10
2015,06,27,12,30,30.20
2015,06,27,12,31,30.20
2015,06,27,12,32,30.30
2015,06,27,12,33,30.40
2015,06,27,12,34,30.60
2015,06,27,12,35,30.70
2015,06,27,12,36,30.80
2015,06,27,12,37,30.80
2015,06,27,12,38,30.80
2015,06,27,12,39,30.90
2015,06,27,12,40,30.80
2015,06,27,12,41,30.90
2015,06,27,12,42,31.00
2015,06,27,12,43,31.10
2015,06,27,12,44,31.30
2015,06,27,12,45,31.30
2015,06,27,12,46,31.40
2015,06,27,12,47,31.40
2015,06,27,12,48,31.50
2015,06,27,12,49,31.60
2015,06,27,12,50,31.60
2015,06,27,12,51,31.70
2015,06,27,12,52,31.80
2015,06,27,12,53,31.90
2015,06,27,12,54,31.90
2015,06,27,12,55,31.90
2015,06,27,12,56,31.90
2015,06,27,12,57,31.80
2015,06,27,12,58,31.60
2015,06,27,12,59,31.50
2015,06,27,13,00,31.50
2015,06,27,13,01,31.30
2015,06,27,13,02,31.20
2015,06,27,13,03,31.20
2015,06,27,13,04,31.20
2015,06,27,13,05,31.00
2015,06,27,13,06,30.90
2015,06,27,13,07,30.80
2015,06,27,13,08,30.90
2015,06,27,13,09,30.80
2015,06,27,13,10,30.90
2015,06,27,13,11,31.00
2015,06,27,13,12,31.00
2015,06,27,13,13,30.80
2015,06,27,13,14,30.70
2015,06,27,13,15,30.70
2015,06,27,13,16,30.80
2015,06,27,13,17,30.90
2015,06,27,13,18,31.10
2015,06,27,13,19,31.20
2015,06,27,13,20,31.30
2015,06,27,13,21,31.40
2015,06,27,13,22,31.60
2015,06,27,13,23,31.80
2015,06,27,13,24,31.90
2015,06,27,13,25,32.10
2015,06,27,13,26,32.20
2015,06,27,13,27,32.30
2015,06,27,13,28,32.40
2015,06,27,13,29,32.50
2015,06,27,13,30,32.60
2015,06,27,13,31,32.60
2015,06,27,13,32,32.70
2015,06,27,13,33,32.80
2015,06,27,13,34,32.80
2015,06,27,13,35,32.80
2015,06,27,13,36,32.90
2015,06,27,13,37,32.90
2015,06,27,13,38,32.90
2015,06,27,13,58,32.90
2015,06,27,13,59,32.90
2015,06,27,14,00,32.90
2015,06,27,14,01,32.90
2015,06,27,14,02,32.90
2015,06,27,14,03,32.90
2015,06,27,14,04,32.80
2015,06,27,14,05,32.70
2015,06,27,14,06,32.50
2015,06,27,14,07,32.40
2015,06,27,14,08,32.30
2015,06,27,14,09,32.10
2015,06,27,14,10,31.90
2015,06,27,14,11,31.70
2015,06,27,14,12,31.60
2015,06,27,14,13,31.50
2015,06,27,14,14,31.50
2015,06,27,14,15,31.50
2015,06,27,14,16,31.40
2015,06,27,14,17,31.30
2015,06,27,14,18,31.30
2015,06,27,14,19,31.30
2015,06,27,14,20,31.50
2015,06,27,14,21,31.60
2015,06,27,14,22,31.60
2015,06,27,14,23,31.60
2015,06,27,14,24,31.60
2015,06,27,14,25,31.60
2015,06,27,14,26,31.50
2015,06,27,14,27,31.60
2015,06,27,14,28,31.70
2015,06,27,14,29,31.80
2015,06,27,14,30,31.70
2015,06,27,14,31,31.60
2015,06,27,14,32,31.50
2015,06,27,14,33,31.50
2015,06,27,14,34,31.50
2015,06,27,14,35,31.50
2015,06,27,14,36,31.50
2015,06,27,14,37,31.40
2015,06,27,14,38,31.40
2015,06,27,14,39,31.40
2015,06,27,14,40,31.50
2015,06,27,14,41,31.50
2015,06,27,14,42,31.60
2015,06,27,14,43,31.80
2015,06,27,14,44,31.90
2015,06,27,14,45,32.10
2015,06,27,14,46,32.20
2015,06,27,14,47,32.30
2015,06,27,14,48,32.40
2015,06,27,14,49,32.50
2015,06,27,14,50,32.50
2015,06,27,14,51,32.60
2015,06,27,14,52,32.70
2015,06,27,14,53,32.80
2015,06,27,14,54,32.80
2015,06,27,14,55,32.80
2015,06,27,14,56,32.80
2015,06,27,14,57,32.80
2015,06,27,14,58,32.90
2015,06,27,15,28,32.90
2015,06,27,15,29,32.80
2015,06,27,15,30,32.70
2015,06,27,15,31,32.60
2015,06,27,15,32,32.50
2015,06,27,15,33,32.40
2015,06,27,15,34,32.50
2015,06,27,15,35,32.50
2015,06,27,15,36,32.60
2015,06,27,15,37,32.70
2015,06,27,15,38,32.70
2015,06,27,15,39,32.80
2015,06,27,15,40,32.90
2015,06,27,15,41,32.90
2015,06,27,19,09,32.90
2015,06,27,19,10,32.90
2015,06,27,19,11,32.90
2015,06,27,19,12,32.90
2015,06,27,19,29,32.90
2015,06,27,19,30,32.90
2015,06,27,19,31,32.90
2015,06,27,19,32,32.90
2015,06,27,19,33,32.80
2015,06,27,19,34,32.70
2015,06,27,19,35,32.30
2015,06,27,19,36,31.80
2015,06,27,19,37,31.30
2015,06,27,19,38,30.50
2015,06,27,19,39,29.70
2015,06,27,19,40,29.00
2015,06,27,19,41,28.30
2015,06,27,19,42,27.70
2015,06,27,19,43,27.30
2015,06,27,19,44,27.00
2015,06,27,19,45,26.70
2015,06,27,19,46,26.50
2015,06,27,19,47,26.30
2015,06,27,19,48,26.20
2015,06,27,19,49,26.10
2015,06,27,19,50,26.00
2015,06,27,19,51,25.90
2015,06,27,19,52,25.90
2015,06,27,19,53,25.90
2015,06,27,19,54,25.90
2015,06,27,19,55,25.90
2015,06,27,19,56,25.90
2015,06,27,19,57,25.90
2015,06,27,19,58,25.90
2015,06,27,19,59,25.90
2015,06,27,20,00,25.90
2015,06,27,20,01,25.80
2015,06,27,20,02,25.80
2015,06,27,20,03,25.80
2015,06,27,20,04,25.80
2015,06,27,20,05,25.70
2015,06,27,20,06,25.60
2015,06,27,20,07,25.50
2015,06,27,20,08,25.40
2015,06,27,20,09,25.20
2015,06,27,20,10,25.10
2015,06,27,20,11,25.00
2015,06,27,20,12,24.80
2015,06,27,20,13,24.80
2015,06,27,20,14,24.70
2015,06,27,20,15,24.60
2015,06,27,20,16,24.50
2015,06,27,20,17,24.50
2015,06,27,20,18,24.40
2015,06,27,20,19,24.30
2015,06,27,20,20,24.20
2015,06,27,20,21,24.20
2015,06,27,20,22,24.10
2015,06,27,20,23,24.00
2015,06,27,20,24,23.90
2015,06,27,20,25,23.80
2015,06,27,20,26,23.80
2015,06,27,20,27,23.70
2015,06,27,20,28,23.70
2015,06,27,20,29,23.60
2015,06,27,20,30,23.60
2015,06,27,20,31,23.50
2015,06,27,20,32,23.50
2015,06,27,20,33,23.40
2015,06,27,20,34,23.40
2015,06,27,20,35,23.40
2015,06,27,20,36,23.40
2015,06,27,20,37,23.40
2015,06,27,20,38,23.30
2015,06,27,20,39,23.30
2015,06,27,20,40,23.20
2015,06,27,20,41,23.20
2015,06,27,20,42,23.20
2015,06,27,20,43,23.20
2015,06,27,20,44,23.20
2015,06,27,20,45,23.10
2015,06,27,20,46,23.10
2015,06,27,20,47,23.10
2015,06,27,20,48,23.10
2015,06,27,20,49,23.10
2015,06,27,20,50,23.00
2015,06,27,20,51,23.00
2015,06,27,20,52,23.00
2015,06,27,20,53,22.90
2015,06,27,20,54,22.90
2015,06,27,20,55,22.90
2015,06,27,20,56,22.90
2015,06,27,20,57,22.90
2015,06,27,20,58,22.90
2015,06,27,20,59,22.90
2015,06,27,21,00,22.90
2015,06,27,21,01,23.00
2015,06,27,21,02,23.00
2015,06,27,21,03,23.00
2015,06,27,21,04,23.10
2015,06,27,21,05,23.10
2015,06,27,21,06,23.10
2015,06,27,21,07,23.10
2015,06,27,21,08,23.00
2015,06,27,21,09,23.00
2015,06,27,21,10,22.90
2015,06,27,21,11,22.80
2015,06,27,21,12,22.80
2015,06,27,21,13,22.70
2015,06,27,21,14,22.70
2015,06,27,21,15,22.60
2015,06,27,21,16,22.60
2015,06,27,21,17,22.50
2015,06,27,21,18,22.50
2015,06,27,21,19,22.40
2015,06,27,21,20,22.40
2015,06,27,21,21,22.30
2015,06,27,21,22,22.20
2015,06,27,21,23,22.20
2015,06,27,21,24,22.10
2015,06,27,21,25,22.10
2015,06,27,21,26,22.10
2015,06,27,21,27,22.00
2015,06,27,21,28,21.90
2015,06,27,21,29,21.90
2015,06,27,21,30,21.80
2015,06,27,21,31,21.80
2015,06,27,21,32,21.80
2015,06,27,21,33,21.70
2015,06,27,21,34,21.70
2015,06,27,21,35,21.60
2015,06,27,21,36,21.60
2015,06,27,21,37,21.60
2015,06,27,21,38,21.60
2015,06,27,21,39,21.50
2015,06,27,21,40,21.50
2015,06,27,21,41,21.50
2015,06,27,21,42,21.40
2015,06,27,21,43,21.40
2015,06,27,21,44,21.30
2015,06,27,21,45,21.30
2015,06,27,21,46,21.30
2015,06,27,21,47,21.20
2015,06,27,21,48,21.10
2015,06,27,21,49,21.00
2015,06,27,21,50,21.00